Regional Weather Roundup
Issued by NWS

Home | Current Version | Previous Version | Graphics & Text | Print | Product List | Glossary On
Versions: 1 2 3 4 5 6 7 8 9 10 11 12 13 14 15 16 17 18 19 20 21 22 23 24 25 26 27 28 29 30 31 32 33 34 35 36 37 38 39 40 41 42 43 44 45 46 47 48 49 50
000
ASUS43 KLMK 262102
RWRKY
KENTUCKY REGIONAL WEATHER ROUNDUP
NATIONAL WEATHER SERVICE LOUISVILLE KY
400 PM EST FRI DEC 26 2014

NOTE "FAIR" INDICATES FEW OR NO CLOUDS BELOW 12,000 FEET
WITH NO SIGNIFICANT WEATHER AND/OR OBSTRUCTIONS TO VISIBILITY.

KYZ001>023-026-027-061>063-070>075-262200-
WESTERN AND SOUTH CENTRAL KENTUCKY

CITY           SKY/WX    TMP DP  RH WIND       PRES   REMARKS
PADUCAH        MOSUNNY   56  42  59 S9        30.14S
HENDERSON      MOSUNNY   55  39  54 S8        30.14F
OWENSBORO      SUNNY     55  43  64 S13       30.17S
HOPKINSVILLE   MOSUNNY   56  39  53 S6        30.19R
BOWLING GREEN  SUNNY     56  35  45 S10       30.22S
GLASGOW        NOT AVBL
$$

KYZ024-025-028>034-038-045-046-053-262200-
NORTH CENTRAL KENTUCKY

CITY           SKY/WX    TMP DP  RH WIND       PRES   REMARKS
LOUISVILLE/SDF PTSUNNY   56  37  49 S8        30.18S
LOUISVILLE/LOU SUNNY     55  37  50 S8        30.19S
FORT KNOX      SUNNY     55  39  55 S9        30.18S
$$

KYZ035>037-039>044-047>052-055>060-089>105-262200-
NORTHEAST KENTUCKY

CITY           SKY/WX    TMP DP  RH WIND       PRES   REMARKS
LEXINGTON      SUNNY     52  33  48 S10       30.22R
COVINGTON      PTSUNNY   52  33  48 SW12G17   30.18R
FRANKFORT      SUNNY     53  33  46 SW9       30.20R
$$

KYZ054-064>069-076>088-106>120-262200-
SOUTHEAST KENTUCKY

CITY           SKY/WX    TMP DP  RH WIND       PRES   REMARKS
JACKSON        SUNNY     53  27  36 S7        30.24S
LONDON         SUNNY     55  25  31 SW7       30.25S
SOMERSET       SUNNY     54  34  47 SE5       30.25F
MIDDLESBORO    MOSUNNY   51  33  50 S8        30.28R
MONTICELLO     CLEAR     57  32  39 S7        30.26F
$$




USA.gov is the U.S. government's official web portal to all federal, state and local government web resources and services.